Location: Feigenhofen
(48.4939°N, 10.7793°E)
Time: 16:47:06
(UTC+00:00)

COSMOS 2441 - Pass Details

Date: 26 May 2022
Orbit: 706 x 732 km, 98.1° (Epoch: 07 July)

Event Time Altitude Azimuth Distance (km) Brightness Sun altitude
Rises 02:10:24 0° 13° (NNE) 3,157 8.9 -10.0°
Reaches altitude 10° 02:12:42 10° 13° (NNE) 2,227 8.0 -9.8°
Maximum altitude 02:17:36 85° 286° (WNW) 730 4.4 -9.2°
Drops below altitude 10° 02:22:25 10° 198° (SSW) 2,194 6.3 -8.7°
Enters shadow 02:22:51 - 198° (SSW) 2,366 6.5 -8.6°
